Morgantown, WV

12:53 AM EST on February 25, 2017 (GMT -0500)
Morgantown Municipal-Hart

Weather History for KMGW - December, 2011

Change the Weather History Date:

Saturday, December 24, 2011

  Actual Average Record
Temperature  
Mean Temperature 36 °F 33 °F  
Max Temperature 42 °F 40 °F 71 °F (2015)
Min Temperature 30 °F 25 °F -11 °F (1983)
Degree Days  
Heating Degree Days 29 32  
Month to date heating degree days 568 707  
Since 1 July heating degree days 1455 1755  
Cooling Degree Days 0 0  
Month to date cooling degree days 0 0  
Year to date cooling degree days 1009 814  
Moisture  
Dew Point 27 °F    
Average Humidity 76    
Maximum Humidity 96    
Minimum Humidity 55    
Precipitation  
Precipitation 0.01 in 0.09 in 1.27 in (1988)
Month to date precipitation 2.60 2.31  
Year to date precipitation 56.49 41.23  
Sea Level Pressure  
Sea Level Pressure 30.38 in    
Wind  
Wind Speed 3 mph (WSW)    
Max Wind Speed 13 mph    
Max Gust Speed 22 mph    
Visibility 10 miles    
Events      
T = Trace of Precipitation, MM = Missing Value Source: NWS Daily Summary

Daily Weather History Graph

Daily Weather History Graph

Search for Another Location

Airport or City:

Trip Planner

Search our weather history database for the weather conditions in past years. The results will help you decide how hot, cold, wet, or windy it might be!

Date:

Astronomy

Dec. 24, 2011 Rise Set
Actual Time 7:38 AM EST 5:00 PM EST
Civil Twilight 7:07 AM EST 5:30 PM EST
Nautical Twilight 6:33 AM EST 6:04 PM EST
Astronomical Twilight 6:01 AM EST 6:37 PM EST
Moon 7:24 AM EST (12/24) 5:11 PM EST (12/24)
Length of Visible Light 10h 22m
Length of Day
9h 22m
Waning Crescent, 0% of the Moon is Illuminated
Dec 24
Waning Crescent
Dec 24
New
Jan 1
First Quarter
Jan 9
Full
Jan 16
Last Quarter

Hourly Weather History & Observations

Time (EST) Temp. Windchill Dew Point Humidity Pressure Visibility Wind Dir Wind Speed Gust Speed Precip Events Conditions
12:28 AM 35.6 °F 31.7 °F 32.0 °F 87% 30.26 in 8.0 mi WNW 4.6 mph - N/A   Overcast
1:03 AM 33.8 °F 28.6 °F 30.2 °F 87% 30.27 in 10.0 mi WNW 5.8 mph - 0.00 in   Overcast
1:12 AM 33.8 °F 29.6 °F 30.2 °F 87% 30.27 in 10.0 mi WNW 4.6 mph - 0.00 in   Overcast
1:20 AM 33.8 °F 29.6 °F 30.2 °F 87% 30.28 in 10.0 mi WNW 4.6 mph - 0.00 in   Overcast
1:53 AM 34.0 °F 31.0 °F 28.9 °F 82% 30.33 in 10.0 mi NW 3.5 mph - 0.00 in   Overcast
2:53 AM 34.0 °F 28.0 °F 27.0 °F 75% 30.35 in 10.0 mi West 6.9 mph - N/A   Overcast
3:33 AM 33.8 °F 27.0 °F 24.8 °F 70% 30.34 in 10.0 mi WNW 8.1 mph - N/A   Overcast
3:53 AM 33.1 °F 30.0 °F 25.0 °F 72% 30.37 in 10.0 mi West 3.5 mph - N/A   Overcast
4:53 AM 33.1 °F - 25.0 °F 72% 30.39 in 10.0 mi Calm Calm - N/A   Overcast
5:53 AM 33.1 °F - 26.1 °F 75% 30.41 in 10.0 mi Calm Calm - N/A   Overcast
6:53 AM 33.1 °F - 26.1 °F 75% 30.42 in 10.0 mi Calm Calm - N/A   Overcast
7:53 AM 30.9 °F - 28.0 °F 89% 30.45 in 10.0 mi Calm Calm - N/A   Overcast
8:53 AM 32.0 °F - 28.9 °F 88% 30.46 in 10.0 mi Calm Calm - N/A   Overcast
9:53 AM 34.0 °F - 28.9 °F 82% 30.46 in 10.0 mi Calm Calm - N/A   Scattered Clouds
10:53 AM 36.0 °F 30.3 °F 30.0 °F 79% 30.46 in 10.0 mi South 6.9 mph - N/A   Mostly Cloudy
10:57 AM 35.6 °F 31.7 °F 30.2 °F 81% 30.43 in 10.0 mi SW 4.6 mph - N/A   Mostly Cloudy
11:26 AM 37.4 °F 33.8 °F 30.2 °F 75% 30.41 in 10.0 mi SW 4.6 mph - N/A   Overcast
11:53 AM 37.9 °F 32.7 °F 28.0 °F 68% 30.43 in 10.0 mi SW 6.9 mph - N/A   Mostly Cloudy
12:53 PM 39.9 °F 36.7 °F 27.0 °F 60% 30.40 in 10.0 mi Variable 4.6 mph - N/A   Mostly Cloudy
1:53 PM 41.0 °F 38.0 °F 28.0 °F 60% 30.36 in 10.0 mi South 4.6 mph - N/A   Mostly Cloudy
2:53 PM 41.0 °F 37.1 °F 26.6 °F 57% 30.34 in 10.0 mi Variable 5.8 mph - N/A   Mostly Cloudy
3:53 PM 39.9 °F 35.1 °F 26.1 °F 58% 30.38 in 10.0 mi Variable 6.9 mph 21.9 mph N/A   Overcast
4:53 PM 37.9 °F 32.1 °F 25.0 °F 60% 30.39 in 10.0 mi SSW 8.1 mph - N/A   Scattered Clouds
5:53 PM 36.0 °F - 24.1 °F 62% 30.40 in 10.0 mi Calm Calm - N/A   Clear
6:53 PM 32.0 °F 28.7 °F 24.1 °F 73% 30.39 in 10.0 mi South 3.5 mph - N/A   Clear
7:53 PM 32.0 °F 28.7 °F 25.0 °F 75% 30.39 in 10.0 mi SSW 3.5 mph - N/A   Clear
8:53 PM 33.1 °F - 25.0 °F 72% 30.38 in 10.0 mi Calm Calm - N/A   Clear
9:53 PM 32.0 °F - 25.0 °F 75% 30.36 in 10.0 mi Calm Calm - N/A   Clear
10:53 PM 33.1 °F 30.0 °F 25.0 °F 72% 30.35 in 10.0 mi SSW 3.5 mph - N/A   Clear
11:53 PM 30.0 °F 26.5 °F 25.0 °F 82% 30.35 in 10.0 mi SSW 3.5 mph - N/A   Clear